| time (UTC) | temp F | wind direction | speed MPH | gust MPH | rain 1hr in | rain 24hr in | rain mn in | humidity % | barometer mb |
| 20260905080040 | 52 | 267 | 2.0 | 7.0 | 0.00 | 0.01 | 0.00 | 85 | 1020.4 |
| 20260905074542 | 52 | 269 | 4.0 | 10.0 | 0.00 | 0.01 | 0.00 | 85 | 1020.4 |
| 20260905073040 | 52 | 270 | 7.0 | 10.0 | 0.00 | 0.01 | 0.00 | 86 | 1020.3 |
| 20260905071536 | 52 | 287 | 4.0 | 7.0 | 0.00 | 0.01 | 0.00 | 84 | 1020.1 |
| 20260905070035 | 53 | 330 | 3.0 | 8.0 | 0.00 | 0.01 | 0.00 | 83 | 1019.8 |
| 20260905064534 | 54 | 341 | 4.0 | 10.0 | 0.00 | 0.01 | 0.00 | 85 | 1019.8 |
| 20260905063035 | 54 | 323 | 8.0 | 11.0 | 0.00 | 0.01 | 0.00 | 85 | 1020.6 |
| 20260905061534 | 53 | 285 | 8.0 | 13.0 | 0.00 | 0.01 | 0.00 | 84 | 1021.3 |
| 20260905060035 | 52 | 259 | 3.0 | 7.0 | 0.00 | 0.01 | 0.00 | 83 | 1020.8 |
| 20260905054538 | 51 | 266 | 4.0 | 9.0 | 0.00 | 0.01 | 0.01 | 82 | 1019.9 |
| 20260905053042 | 52 | 306 | 4.0 | 9.0 | 0.00 | 0.01 | 0.01 | 79 | 1019.5 |
| 20260905051544 | 53 | 325 | 7.0 | 11.0 | 0.00 | 0.01 | 0.01 | 77 | 1019.3 |
| 20260905050040 | 54 | 330 | 9.0 | 13.0 | 0.00 | 0.01 | 0.01 | 75 | 1019.5 |
| 20260905044540 | 55 | 288 | 7.0 | 10.0 | 0.00 | 0.01 | 0.01 | 76 | 1020.5 |
| 20260905043042 | 54 | 271 | 2.0 | 5.0 | 0.00 | 0.01 | 0.01 | 77 | 1020.0 |
| 20260905041540 | 54 | 339 | 1.0 | 4.0 | 0.00 | 0.01 | 0.01 | 78 | 1019.8 |
| 20260905040042 | 55 | 336 | 3.0 | 9.0 | 0.00 | 0.01 | 0.01 | 77 | 1019.2 |
| 20260905034534 | 56 | 305 | 7.0 | 11.0 | 0.01 | 0.01 | 0.01 | 76 | 1018.9 |
| 20260905033107 | 56 | 291 | 7.0 | 10.0 | 0.01 | 0.01 | 0.01 | 77 | 1018.9 |
| 20260905031551 | 56 | 296 | 5.0 | 8.0 | 0.01 | 0.01 | 0.01 | 78 | 1018.9 |
| 20260905030050 | 59 | 316 | 8.0 | 12.0 | 0.01 | 0.01 | 0.01 | 71 | 1018.5 |
| 20260905024536 | 62 | 267 | 7.0 | 12.0 | 0.00 | 0.00 | 0.00 | 61 | 1019.3 |
| 20260905023035 | 63 | 330 | 9.0 | 16.0 | 0.00 | 0.00 | 0.00 | 58 | 1017.4 |
| 20260905021541 | 64 | 322 | 5.0 | 10.0 | 0.00 | 0.00 | 0.00 | 57 | 1016.9 |
| 20260905020039 | 66 | 5 | 6.0 | 14.0 | 0.00 | 0.00 | 0.00 | 51 | 1016.4 |
| 20260905014534 | 68 | 330 | 11.0 | 16.0 | 0.00 | 0.00 | 0.00 | 47 | 1016.2 |
| 20260905013041 | 67 | 360 | 9.0 | 16.0 | 0.00 | 0.00 | 0.00 | 50 | 1015.7 |
| 20260905011541 | 69 | 5 | 10.0 | 18.0 | 0.00 | 0.00 | 0.00 | 47 | 1015.7 |
| 20260905010041 | 70 | 5 | 8.0 | 16.0 | 0.00 | 0.00 | 0.00 | 46 | 1015.5 |
| 20260905004538 | 72 | 32 | 4.0 | 12.0 | 0.00 | 0.00 | 0.00 | 40 | 1015.6 |
| 20260905003037 | 72 | 15 | 9.0 | 16.0 | 0.00 | 0.00 | 0.00 | 39 | 1014.6 |
| 20260905001543 | 73 | 360 | 12.0 | 17.0 | 0.00 | 0.00 | 0.00 | 38 | 1014.3 |
| 20260905000038 | 73 | 351 | 9.0 | 17.0 | 0.00 | 0.00 | 0.00 | 38 | 1014.1 |
| 20260904234535 | 74 | 355 | 8.0 | 18.0 | 0.00 | 0.00 | 0.00 | 37 | 1014.2 |
| 20260904233041 | 75 | 5 | 10.0 | 16.0 | 0.00 | 0.00 | 0.00 | 37 | 1014.1 |
| 20260904231541 | 75 | 334 | 9.0 | 13.0 | 0.00 | 0.00 | 0.00 | 36 | 1014.0 |
| 20260904224538 | 74 | 292 | 7.0 | 13.0 | 0.00 | 0.00 | 0.00 | 38 | 1013.9 |
| 20260904223040 | 74 | 247 | 6.0 | 11.0 | 0.00 | 0.00 | 0.00 | 39 | 1013.8 |
| 20260904221539 | 75 | 308 | 6.0 | 8.0 | 0.00 | 0.00 | 0.00 | 36 | 1013.6 |
| 20260904220038 | 74 | 277 | 4.0 | 12.0 | 0.00 | 0.00 | 0.00 | 38 | 1014.0 |
| 20260904214536 | 75 | 271 | 4.0 | 8.0 | 0.00 | 0.00 | 0.00 | 37 | 1013.8 |
| 20260904213034 | 76 | 314 | 6.0 | 9.0 | 0.00 | 0.00 | 0.00 | 38 | 1013.7 |
| 20260904211538 | 76 | 307 | 4.0 | 9.0 | 0.00 | 0.00 | 0.00 | 35 | 1013.7 |
| 20260904210035 | 76 | 355 | 4.0 | 9.0 | 0.00 | 0.00 | 0.00 | 35 | 1013.5 |
| 20260904204538 | 76 | 0 | 1.0 | 6.0 | 0.00 | 0.00 | 0.00 | 37 | 1013.4 |
| 20260904203038 | 76 | 333 | 5.0 | 11.0 | 0.00 | 0.00 | 0.00 | 36 | 1013.5 |
| 20260904201533 | 75 | 360 | 7.0 | 13.0 | 0.00 | 0.00 | 0.00 | 37 | 1013.3 |
| 20260904200050 | 75 | 342 | 6.0 | 14.0 | 0.00 | 0.00 | 0.00 | 39 | 1013.3 |
| 20260904194537 | 76 | 301 | 9.0 | 13.0 | 0.00 | 0.00 | 0.00 | 37 | 1013.2 |
| 20260904193038 | 75 | 225 | 4.0 | 17.0 | 0.00 | 0.00 | 0.00 | 38 | 1013.1 |
| 20260904191542 | 74 | 355 | 3.0 | 10.0 | 0.00 | 0.00 | 0.00 | 39 | 1013.0 |
| 20260904190044 | 73 | 309 | 5.0 | 10.0 | 0.00 | 0.00 | 0.00 | 39 | 1013.1 |
| 20260904184537 | 73 | 290 | 3.0 | 10.0 | 0.00 | 0.00 | 0.00 | 40 | 1013.1 |
| 20260904183050 | 71 | 344 | 5.0 | 11.0 | 0.00 | 0.00 | 0.00 | 41 | 1013.1 |
| 20260904181540 | 71 | 338 | 6.0 | 15.0 | 0.00 | 0.00 | 0.00 | 42 | 1013.2 |
| 20260904180040 | 70 | 323 | 5.0 | 9.0 | 0.00 | 0.00 | 0.00 | 44 | 1013.1 |
| 20260904174537 | 69 | 283 | 5.0 | 11.0 | 0.00 | 0.00 | 0.00 | 47 | 1013.1 |
| 20260904173035 | 68 | 304 | 5.0 | 10.0 | 0.00 | 0.00 | 0.00 | 47 | 1013.1 |
| 20260904171545 | 67 | 310 | 3.0 | 10.0 | 0.00 | 0.00 | 0.00 | 48 | 1013.0 |
| 20260904170042 | 66 | 317 | 7.0 | 12.0 | 0.00 | 0.00 | 0.00 | 49 | 1013.1 |
| 20260904164546 | 65 | 227 | 6.0 | 13.0 | 0.00 | 0.00 | 0.00 | 49 | 1013.0 |
| 20260904163034 | 65 | 277 | 6.0 | 12.0 | 0.00 | 0.00 | 0.00 | 52 | 1012.9 |
| 20260904161545 | 64 | 289 | 7.0 | 14.0 | 0.00 | 0.00 | 0.00 | 53 | 1012.7 |
| 20260904160038 | 63 | 267 | 9.0 | 12.0 | 0.00 | 0.00 | 0.00 | 56 | 1012.5 |
| 20260904154536 | 61 | 282 | 5.0 | 13.0 | 0.00 | 0.00 | 0.00 | 58 | 1012.2 |
| 20260904153056 | 61 | 261 | 7.0 | 13.0 | 0.00 | 0.00 | 0.00 | 58 | 1012.0 |
| 20260904151545 | 59 | 252 | 7.0 | 14.0 | 0.00 | 0.00 | 0.00 | 61 | 1011.9 |
| 20260904150042 | 57 | 277 | 7.0 | 14.0 | 0.00 | 0.00 | 0.00 | 61 | 1011.4 |
| 20260904144538 | 57 | 271 | 5.0 | 9.0 | 0.00 | 0.00 | 0.00 | 64 | 1011.3 |
| 20260904143036 | 55 | 260 | 6.0 | 9.0 | 0.00 | 0.00 | 0.00 | 64 | 1010.9 |
| 20260904141538 | 56 | 286 | 6.0 | 10.0 | 0.00 | 0.00 | 0.00 | 65 | 1010.5 |
| 20260904140039 | 56 | 280 | 3.0 | 8.0 | 0.00 | 0.00 | 0.00 | 65 | 1010.0 |
| 20260904134538 | 53 | 0 | 1.0 | 4.0 | 0.00 | 0.00 | 0.00 | 70 | 1009.8 |
| 20260904133037 | 52 | 0 | 0.0 | 3.0 | 0.00 | 0.00 | 0.00 | 74 | 1009.6 |
| 20260904131541 | 51 | 0 | 0.0 | 0.0 | 0.00 | 0.00 | 0.00 | 76 | 1009.5 |
| 20260904130037 | 50 | 0 | 0.0 | 0.0 | 0.00 | 0.00 | 0.00 | 75 | 1009.6 |
| 20260904124535 | 50 | 0 | 0.0 | 0.0 | 0.00 | 0.00 | 0.00 | 76 | 1009.4 |
| 20260904123037 | 50 | 0 | 0.0 | 4.0 | 0.00 | 0.00 | 0.00 | 75 | 1009.5 |
| 20260904121535 | 50 | 291 | 2.0 | 5.0 | 0.00 | 0.00 | 0.00 | 75 | 1009.8 |
| 20260904120039 | 50 | 291 | 3.0 | 7.0 | 0.00 | 0.00 | 0.00 | 75 | 1009.8 |
| 20260904114536 | 50 | 287 | 3.0 | 5.0 | 0.00 | 0.00 | 0.00 | 74 | 1009.7 |
| 20260904113042 | 51 | 287 | 3.0 | 4.0 | 0.00 | 0.00 | 0.00 | 73 | 1009.6 |
| 20260904111538 | 50 | 287 | 2.0 | 5.0 | 0.00 | 0.00 | 0.00 | 73 | 1009.5 |
| 20260904110037 | 51 | 287 | 4.0 | 5.0 | 0.00 | 0.00 | 0.00 | 71 | 1009.6 |
| 20260904104536 | 52 | 287 | 2.0 | 4.0 | 0.00 | 0.00 | 0.00 | 70 | 1009.5 |
| 20260904103049 | 52 | 287 | 2.0 | 5.0 | 0.00 | 0.00 | 0.00 | 67 | 1009.8 |
| 20260904101548 | 53 | 296 | 5.0 | 9.0 | 0.00 | 0.00 | 0.00 | 66 | 1009.8 |
| 20260904100035 | 53 | 298 | 1.0 | 3.0 | 0.00 | 0.00 | 0.00 | 66 | 1010.2 |
| 20260904094556 | 53 | 0 | 2.0 | 5.0 | 0.00 | 0.00 | 0.00 | 65 | 1010.2 |
| 20260904093038 | 53 | 0 | 0.0 | 4.0 | 0.00 | 0.00 | 0.00 | 64 | 1010.3 |
| 20260904091538 | 52 | 298 | 2.0 | 7.0 | 0.00 | 0.00 | 0.00 | 66 | 1010.4 |
| 20260904090037 | 53 | 327 | 1.0 | 4.0 | 0.00 | 0.00 | 0.00 | 64 | 1010.4 |
| 20260904084539 | 54 | 0 | 0.0 | 3.0 | 0.00 | 0.00 | 0.00 | 61 | 1010.5 |
| 20260904083042 | 54 | 0 | 0.0 | 0.0 | 0.00 | 0.00 | 0.00 | 63 | 1010.6 |
| 20260904081539 | 54 | 0 | 0.0 | 0.0 | 0.00 | 0.00 | 0.00 | 59 | 1010.6 |